Location: Bonnesvalyn
(49.1218°N, 3.3177°E)
Time: 22:40:05
(UTC+00:00)

Daily predictions for brighter satellites

Satellite Brightness Start Highest point End
(mag) Time Altitude Azimuth Time Altitude Azimuth Time Altitude Azimuth
Cosmos 2098 Rocket 3.3 16:19:05 10° S 16:23:22 60° E 16:28:25 10° NNE
USA 290 2.6 16:22:16 10° NNW 16:25:31 69° WSW 16:28:45 10° SSE
Cosmos 2208 Rocket 4.5 16:20:55 10° NNW 16:26:03 67° WSW 16:31:11 10° S
Cosmos 1782 2.5 16:22:45 10° S 16:26:20 78° E 16:29:56 10° NNE
Cosmos 1933 4.3 16:23:32 10° SSE 16:26:44 26° E 16:29:58 10° NNE
Cosmos 2227 Rocket 2.3 16:23:58 10° NNW 16:29:33 55° NE 16:35:05 10° SE
Meteor 1-28 Rocket 3.3 16:26:58 10° NNE 16:30:11 41° E 16:33:21 10° S
Cosmos 2369 Rocket 4.3 16:28:39 10° WNW 16:32:21 17° NW 16:36:04 10° N
CBERS-1 4.0 16:27:26 10° SSE 16:32:32 75° ENE 16:37:38 10° NNW
Cosmos 2180 Rocket 4.5 16:34:37 10° S 16:40:42 72° E 16:46:53 10° NNE
CENTAUR R/B 3.6 16:35:12 10° W 16:40:52 38° NNW 16:47:54 10° NE
Cosmos 1697 Rocket 2.9 16:36:00 10° S 16:41:24 52° ESE 16:46:51 10° NE
Cosmos 2360 4.4 16:37:17 10° SSW 16:43:00 80° WNW 16:48:48 10° NNE
Cosmos 1626 Rocket 4.4 16:38:57 10° NNW 16:43:10 53° W 16:47:19 10° S
CZ-2D R/B 3.6 16:41:40 10° SE 16:44:23 28° ENE 16:47:08 10° N
NOSS 2-3 (C) 4.3 16:42:28 10° S 16:45:20 24° ESE 16:47:48 13° ENE
Cosmos 1538 Rocket 4.5 16:40:37 10° NNW 16:45:34 39° ENE 16:50:32 10° SE
Cosmos 2266 Rocket 3.9 16:42:53 10° N 16:49:02 74° E 16:55:05 10° SSE
Cosmos 1656 4.3 16:45:20 10° SW 16:50:52 55° NW 16:56:29 10° NNE
Cosmos 1606 Rocket 3.8 16:48:23 10° SSE 16:52:37 48° E 16:56:54 10° NNE
Cosmos 1503 Rocket 4.0 16:49:42 10° SSW 16:54:56 89° ESE 17:00:10 10° NNE
Lacrosse 5 rocket 2.5 16:53:29 10° WNW 16:56:34 24° N 16:58:51 14° NE
UNK 3.8 16:54:34 10° NNE 16:59:07 60° ESE 17:03:36 10° S
CZ-4C R/B 3.5 16:52:30 10° NW 16:59:26 67° SW 17:08:02 10° SSE
Cosmos 1484 Rocket 3.6 16:56:16 10° S 16:59:39 47° W 17:03:03 10° NNW
Radarsat 4.5 16:55:32 10° SSE 17:00:41 72° ENE 17:05:52 10° N
Thor Agena Rocket 3.6 16:55:38 10° SSE 17:00:50 88° WSW 17:06:01 10° NNW
Cosmos 1743 3.8 16:58:23 10° NNW 17:01:27 39° W 17:04:29 10° SSW
IRS-P3 4.3 16:58:28 10° SE 17:03:33 49° ENE 17:08:39 10° N
NOSS 2-3 (D) 3.5 17:01:02 10° SSW 17:04:34 46° SE 17:07:02 18° ENE
NOSS 2-3 (E) 3.4 17:01:39 10° SSW 17:05:12 50° SE 17:07:43 18° NE
Cosmos 1354 Rocket 4.0 17:00:42 10° SSW 17:05:57 79° ESE 17:11:13 10° NNE
IGS 5A 4.2 17:03:14 10° S 17:07:07 54° W 17:11:03 10° NNW
Cosmos 1777 Rocket 4.4 17:03:01 10° SW 17:08:13 64° WNW 17:13:27 10° NNE
Cosmos-2242 4.0 17:06:08 10° SE 17:09:34 24° E 17:11:23 18° NE
Cosmos 2151 3.8 17:05:30 10° NNW 17:09:34 53° W 17:13:37 10° S
USA 238 DEB 3.9 17:04:11 10° S 17:09:55 46° ESE 17:14:48 16° NE
USA 238 3.9 17:04:17 10° S 17:10:02 45° ESE 17:14:54 16° NE
MOS 1 Rocket 3.5 17:05:34 10° SSE 17:10:27 58° ENE 17:15:38 10° N
Cosmos 1898 Rocket 4.3 17:09:24 10° SSE 17:13:48 30° E 17:16:31 19° NE
Gbstr 26 Del rocket 2.7 17:10:07 10° WSW 17:14:14 75° SSE 17:16:29 23° ENE
Cosmos 1726 Rocket 3.7 17:10:34 10° S 17:15:08 61° E 17:19:39 10° NNE
Cosmos 372 Rocket 4.5 17:11:41 10° S 17:16:24 38° ESE 17:19:40 18° NE
ERS-1 4.4 17:11:35 10° SSE 17:16:33 70° ENE 17:21:30 10° N
USA 215 3.8 17:12:07 16° ENE 17:17:01 46° N 17:23:12 10° WNW
Cosmos 2082 4.0 17:12:34 10° NNW 17:18:03 45° NE 17:23:31 10° SE
AQUARIUS 4.0 17:13:41 10° SSE 17:18:03 67° ENE 17:22:27 10° N
SMAP 3.3 17:14:44 10° S 17:19:23 72° WSW 17:24:04 10° NNW
Cosmos 1805 3.7 17:17:38 10° N 17:20:38 29° ENE 17:23:36 10° SE
Cosmos 2297 Rocket 4.2 17:16:41 10° NW 17:21:37 31° WSW 17:26:31 10° SSW
GEOS 3 Rocket 3.7 17:19:09 17° NE 17:23:22 71° SE 17:28:43 10° SSW
Landsat 7 3.8 17:18:51 10° SSE 17:23:30 83° WSW 17:28:11 10° NNW
YAOGAN 1 3.1 17:22:31 10° SE 17:26:19 33° ENE 17:30:09 10° N
Cosmos 923 Rocket 4.4 17:22:14 10° N 17:27:06 38° ENE 17:31:54 10° SE
Cosmos 1937 Rocket 4.3 17:24:55 10° SSE 17:29:22 30° E 17:30:51 25° ENE
SL-16 R/B 4.0 17:28:17 10° SE 17:29:26 13° ESE 17:29:26 13° ESE
Cosmos 990 Rocket 4.1 17:28:14 10° SSW 17:33:22 74° WNW 17:38:14 12° NNE
Cosmos 1461 4.1 17:30:19 10° WSW 17:33:51 32° NW 17:36:23 16° NNE
CZ-2D R/B 3.7 17:30:23 10° SE 17:34:22 45° ENE 17:38:18 10° N
SL-16 R/B 3.5 17:29:08 10° N 17:35:04 47° WNW 17:40:56 10° SW
SKYMED 2 3.9 17:35:14 25° NE 17:37:22 44° E 17:41:31 10° S
COSMOS 2455 3.9 17:33:15 10° SSE 17:37:56 24° ESE 17:38:36 24° E
Meteor 2-2 Rocket 4.4 17:32:58 10° SSE 17:38:20 46° E 17:42:47 15° NNE
Okean 1 3.7 17:35:28 10° SSE 17:38:20 34° ESE 17:38:20 34° ESE
SJ-6F 4.5 17:40:46 10° S 17:44:45 76° WSW 17:48:48 10° NNW
Cosmos 1844 Rocket 3.4 17:39:58 10° NNW 17:45:02 32° NE 17:45:49 30° ENE
Cosmos 2219 3.1 17:39:31 10° NNW 17:45:18 80° ENE 17:51:03 10° SSE
Cosmos 1980 Rocket 2.1 17:40:06 10° SSW 17:45:44 74° ESE 17:49:21 23° NE
Cosmos 1953 Rocket 3.8 17:43:04 10° NNW 17:47:31 73° W 17:51:56 10° S
Aureole 1 Rocket 3.4 17:43:04 10° SSW 17:47:40 76° ESE 17:51:47 19° NNE
Meteor 1-26 Rocket 4.1 17:43:39 10° S 17:48:54 57° E 17:52:48 18° NNE
PSLV R/B 3.6 17:49:59 44° E 17:50:27 46° ENE 17:54:22 10° N
ARIANE 5 R/B 3.4 17:47:37 10° S 17:52:32 50° W 17:57:33 10° NNW
SL-19 R/B 4.2 17:48:03 10° SE 17:53:23 58° ENE 17:59:02 10° N
Cosmos 2263 Rocket 2.6 17:47:48 10° NNW 17:53:26 65° WSW 17:59:03 10° SSE
BREEZE-M DEB (TANK) 3.5 17:54:09 10° SW 17:57:13 29° SSE 17:57:13 29° SSE
COSMO-SKYMED 1 2.7 17:59:08 45° ESE 17:59:08 45° ESE 18:02:40 10° S
Cosmos 1680 Rocket 3.6 17:53:45 10° NNW 17:58:51 50° ENE 18:00:24 38° ESE
BREEZE-M DEB (TANK) 4.0 17:55:56 10° W 17:59:35 79° SSW 18:06:53 21° ESE
NOSS 3-2 (C) 4.2 17:54:37 10° WSW 17:59:39 42° NNW 18:03:20 21° NNE
NOAA 15 4.5 17:55:27 10° SSE 18:00:44 78° ENE 18:06:02 10° NNW
Meteor 2-10 4.3 17:56:59 10° NNW 18:02:23 77° W 18:07:57 10° S
NOAA 6 4.0 17:57:45 10° SE 18:02:43 55° ENE 18:07:41 10° N
Cosmos 2369 3.7 17:57:47 10° S 18:03:25 60° ESE 18:05:20 39° NE
USA 81 4.3 18:06:15 10° N 18:11:31 69° W 18:16:43 10° S
Cosmos 44 Rocket 3.7 18:07:06 10° NNW 18:11:53 46° NE 18:11:53 46° NE
Cosmos 2227 Rocket 4.3 18:08:32 10° NW 18:13:15 28° WSW 18:17:57 10° SSW
SPOT 1/Viking Rocket 4.0 18:11:26 10° S 18:16:34 63° WSW 18:21:46 10° NNW
Cosmos 2058 Rocket 3.7 18:19:33 10° SSW 18:23:57 57° WNW 18:26:26 25° N
Cosmos 1697 Rocket 4.1 18:20:35 10° WSW 18:25:36 33° NW 18:29:16 17° N
OceanSat 1 rocket 4.5 18:21:26 10° SSE 18:26:10 88° WSW 18:30:54 10° NNW
Cosmos 2333 Rocket 4.1 18:28:14 10° SSE 18:29:34 16° SSE 18:29:34 16° SSE
CENTAUR R/B 4.1 18:27:49 10° NW 18:33:39 27° N 18:35:36 25° NNE
Lacrosse 5 rocket 3.3 18:31:05 10° NW 18:32:26 19° NNW 18:32:26 19° NNW
Meteor 2-11 Rocket 4.4 18:28:17 10° N 18:34:29 87° W 18:40:38 10° S
Meteor 1-14 Rocket 4.1 18:32:54 10° N 18:38:43 79° ENE 18:39:10 73° SE
Cosmos-2242 4.4 18:42:30 10° SW 18:46:25 36° WNW 18:47:46 28° NW
Cosmos 1898 Rocket 4.4 18:50:41 10° SW 18:55:36 44° WNW 18:56:45 38° NNW
Cosmos 1844 4.1 18:50:30 10° NNW 18:54:37 50° NNW 18:54:37 50° NNW
USA 215 3.5 18:59:28 53° NNE 18:59:28 53° NNE 19:05:45 10° WNW
Cosmos 2112 Rocket 4.4 18:55:22 10° NNW 18:59:47 58° WNW 18:59:47 58° WNW
USA 238 DEB 4.2 18:54:43 10° WSW 19:00:47 51° NW 19:02:15 43° N
USA 238 4.1 18:54:49 10° WSW 19:00:53 51° NW 19:02:21 44° N
YAOGAN 1 4.4 18:58:29 10° SSW 19:02:11 28° W 19:05:55 10° NW
BREEZE-M DEB (TANK) 4.0 19:01:36 10° SW 19:06:16 43° SSW 19:06:16 43° SSW
Cosmos 1937 Rocket 4.4 19:06:07 10° SW 19:10:58 44° WNW 19:10:58 44° WNW
SL-16 R/B 3.5 19:08:38 10° SSW 19:11:20 30° SSW 19:11:20 30° SSW
Cosmos 1745 Rocket 4.3 19:10:25 10° NNW 19:16:29 61° W 19:22:29 10° S
COSMOS 2455 3.5 19:17:16 10° SW 19:21:46 51° WSW 19:21:46 51° WSW
Cosmos 1844 Rocket 3.8 19:23:40 10° NW 19:27:31 40° WNW 19:27:31 40° WNW
Cosmos 1980 Rocket 3.9 19:25:40 10° W 19:30:18 25° NW 19:31:07 24° NNW
